Weather History for PAOR - February, 2014

Change the Weather History Date:

Saturday, February 8, 2014

  Actual Average Record
Temperature  
Mean Temperature -4 °F -  
Max Temperature 3 °F 1 °F 29 °F (1982)
Min Temperature -11 °F -18 °F -68 °F (1979)
Degree Days  
Heating Degree Days 69    
Moisture  
Dew Point -6 °F    
Average Humidity 81    
Maximum Humidity 84    
Minimum Humidity 75    
Precipitation  
Precipitation 0.00 in - - ()
Snow  
Snow 0.00 in - - ()
Snow Depth 16.00 in    
Sea Level Pressure  
Sea Level Pressure 30.52 in    
Wind  
Wind Speed 2 mph (NW)    
Max Wind Speed 6 mph    
Max Gust Speed -    
Visibility 6 miles    
Events Snow    
Averages and records for this station are not official NWS values.
T = Trace of Precipitation, MM = Missing Value Source: NWS Daily Summary

Daily Weather History Graph

Daily Weather History Graph

Search for Another Location

Airport or City:

Trip Planner

Search our weather history database for the weather conditions in past years. The results will help you decide how hot, cold, wet, or windy it might be!

Date:

Astronomy

Feb. 08, 2014 Rise Set
Actual Time 8:38 AM AKST 4:46 PM AKST
Civil Twilight 7:47 AM AKST 5:37 PM AKST
Nautical Twilight 6:52 AM AKST 6:32 PM AKST
Astronomical Twilight 5:59 AM AKST 7:25 PM AKST
Moon 11:10 AM AKST (2/8) 4:33 AM AKST (2/8)
Length of Visible Light 9h 50m
Length of Day
8h 08m
Waxing Gibbous, 70% of the Moon is Illuminated
Feb 8
Waxing Gibbous
Feb 14
Full
Feb 22
Last Quarter
Feb 28
New
Mar 8
First Quarter

Hourly Weather History & Observations

Time (AKST) Temp. Windchill Dew Point Humidity Pressure Visibility Wind Dir Wind Speed Gust Speed Precip Events Conditions
12:53 AM -0.9 °F - -5.1 °F 83% 30.50 in 6.0 mi Calm Calm - N/A Snow Light Snow
1:53 AM -0.9 °F - -5.1 °F 83% 30.51 in 6.0 mi Calm Calm - N/A Snow Light Snow
3:53 AM -0.0 °F - -5.1 °F 79% 30.52 in 6.0 mi Calm Calm - N/A Snow Light Snow
4:53 AM -0.9 °F - -5.1 °F 83% 30.53 in 6.0 mi Calm Calm - N/A Snow Light Snow
5:53 AM -0.9 °F - -5.1 °F 83% 30.54 in 7.0 mi Calm Calm - N/A Snow Light Snow
6:53 AM -0.9 °F - -5.1 °F 83% 30.55 in 8.0 mi Calm Calm - N/A Snow Light Snow
7:53 AM 1.0 °F - -4.0 °F 79% 30.56 in 8.0 mi Calm Calm - N/A Snow Light Snow
8:53 AM 1.9 °F -5.6 °F -2.9 °F 80% 30.56 in 7.0 mi WNW 3.5 mph - N/A Snow Light Snow
9:53 AM 1.9 °F -5.6 °F -2.0 °F 83% 30.57 in 6.0 mi NW 3.5 mph - N/A Snow Light Snow
10:53 AM 3.0 °F -6.4 °F -2.0 °F 80% 30.57 in 3.0 mi NW 4.6 mph - N/A Snow Light Snow
11:53 AM 3.0 °F -8.0 °F -0.9 °F 84% 30.56 in 5.0 mi NW 5.8 mph - N/A Snow Light Snow
12:53 PM 3.0 °F -6.4 °F -2.0 °F 80% 30.56 in 6.0 mi NW 4.6 mph - N/A Snow Light Snow
1:53 PM 3.9 °F -5.3 °F -0.9 °F 80% 30.54 in 4.0 mi NW 4.6 mph - N/A Snow Light Snow
2:53 PM 3.0 °F -6.4 °F -2.0 °F 80% 30.53 in 4.0 mi NW 4.6 mph - N/A Snow Light Snow
3:53 PM 1.0 °F - -2.9 °F 83% 30.53 in 5.0 mi Calm Calm - N/A Snow Light Snow
4:53 PM -0.0 °F -7.9 °F -4.0 °F 83% 30.53 in 5.0 mi WNW 3.5 mph - N/A Snow Light Snow
5:53 PM -0.0 °F -9.9 °F -4.0 °F 83% 30.54 in 3.0 mi NW 4.6 mph - N/A Snow Light Snow
6:23 PM -0.4 °F -10.4 °F -5.8 °F 78% 30.34 in 2.5 mi NW 4.6 mph - N/A Snow Light Snow
6:28 PM -0.4 °F -12.0 °F -5.8 °F 78% 30.34 in 2.5 mi NW 5.8 mph - N/A Snow Light Snow
6:53 PM -0.9 °F -11.0 °F -6.0 °F 79% 30.54 in 7.0 mi NW 4.6 mph - N/A   Scattered Clouds
7:53 PM -5.1 °F -13.6 °F -9.9 °F 80% 30.54 in 10.0 mi NW 3.5 mph - N/A   Partly Cloudy
8:53 PM -7.1 °F -18.1 °F -11.9 °F 79% 30.54 in 10.0 mi NW 4.6 mph - N/A   Partly Cloudy
9:53 PM -8.0 °F -19.2 °F -14.1 °F 75% 30.54 in 10.0 mi WNW 4.6 mph - N/A   Partly Cloudy
10:53 PM -11.0 °F -20.4 °F -16.1 °F 78% 30.54 in 9.0 mi WNW 3.5 mph - N/A   Partly Cloudy
11:53 PM -11.9 °F - -17.0 °F 78% 30.54 in 10.0 mi Calm Calm - N/A   Scattered Clouds